[Date Prev][Date Next][Thread Prev][Thread Next] - [Date Index][Thread Index][Author Index]

2 Line ISS Keps 11-4



ISS
1 25544U 98067A   01308.12361111  .00058512  00000-0  72384-3 0  6847
2 25544  51.6408 104.9699 0008868 285.5350 240.1128 15.59485521168910


----
Via the sarex mailing list at AMSAT.ORG courtesy of AMSAT-NA.
To unsubscribe, send "unsubscribe sarex" to Majordomo@amsat.org



AMSAT Top AMSAT Home